| time (UTC) | temp F | wind direction | speed MPH | gust MPH | rain 1hr in | rain 24hr in | rain mn in | humidity % | barometer mb |
| 20260901203008 | 55 | 321 | 3.0 | 7.0 | 0.00 | 0.00 | 0.00 | 91 | 1020.3 |
| 20260901202013 | 55 | 321 | 3.0 | 5.0 | 0.00 | 0.00 | 0.00 | 90 | 1020.1 |
| 20260901201008 | 55 | 321 | 3.0 | 5.0 | 0.00 | 0.00 | 0.00 | 89 | 1020.2 |
| 20260901200003 | 55 | 319 | 3.0 | 4.0 | 0.00 | 0.00 | 0.00 | 88 | 1020.3 |
| 20260901195008 | 56 | 319 | 3.0 | 6.0 | 0.00 | 0.00 | 0.00 | 87 | 1020.1 |
| 20260901194223 | 56 | 320 | 3.0 | 5.0 | 0.00 | 0.00 | 0.00 | 86 | 1020.2 |
| 20260901193008 | 56 | 322 | 3.0 | 4.0 | 0.00 | 0.00 | 0.00 | 85 | 1020.1 |
| 20260901192223 | 57 | 324 | 3.0 | 5.0 | 0.00 | 0.00 | 0.00 | 84 | 1019.9 |
| 20260901191217 | 57 | 323 | 3.0 | 7.0 | 0.00 | 0.00 | 0.00 | 84 | 1019.8 |
| 20260901190009 | 58 | 324 | 3.0 | 6.0 | 0.00 | 0.00 | 0.00 | 84 | 1019.9 |
| 20260901185003 | 58 | 317 | 3.0 | 6.0 | 0.00 | 0.00 | 0.00 | 84 | 1019.8 |
| 20260901184003 | 58 | 319 | 3.0 | 5.0 | 0.00 | 0.00 | 0.00 | 84 | 1019.9 |
| 20260901183223 | 58 | 315 | 3.0 | 7.0 | 0.00 | 0.00 | 0.00 | 84 | 1019.7 |
| 20260901182008 | 59 | 317 | 3.0 | 6.0 | 0.00 | 0.00 | 0.00 | 84 | 1019.7 |
| 20260901181217 | 59 | 317 | 3.0 | 5.0 | 0.00 | 0.00 | 0.00 | 86 | 1020.0 |
| 20260901180223 | 59 | 317 | 3.0 | 5.0 | 0.00 | 0.00 | 0.00 | 87 | 1019.9 |
| 20260901175440 | 59 | 314 | 3.0 | 7.0 | 0.00 | 0.00 | 0.00 | 87 | 1020.0 |
| 20260901174009 | 59 | 313 | 4.0 | 7.0 | 0.00 | 0.00 | 0.00 | 86 | 1020.1 |
| 20260901173008 | 59 | 314 | 3.0 | 7.0 | 0.00 | 0.00 | 0.00 | 87 | 1019.9 |
| 20260901172008 | 59 | 320 | 3.0 | 6.0 | 0.00 | 0.00 | 0.00 | 88 | 1019.8 |
| 20260901171003 | 59 | 323 | 3.0 | 6.0 | 0.00 | 0.00 | 0.00 | 89 | 1020.0 |
| 20260901170003 | 58 | 326 | 3.0 | 7.0 | 0.00 | 0.00 | 0.00 | 89 | 1020.3 |
| 20260901165004 | 58 | 324 | 4.0 | 9.0 | 0.00 | 0.00 | 0.00 | 88 | 1020.2 |
| 20260901164009 | 59 | 313 | 4.0 | 7.0 | 0.00 | 0.00 | 0.00 | 87 | 1020.0 |
| 20260901163218 | 59 | 321 | 3.0 | 8.0 | 0.00 | 0.00 | 0.00 | 85 | 1019.9 |
| 20260901162222 | 60 | 318 | 4.0 | 9.0 | 0.00 | 0.00 | 0.00 | 82 | 1019.9 |
| 20260901161008 | 62 | 316 | 5.0 | 11.0 | 0.00 | 0.00 | 0.00 | 76 | 1020.1 |
| 20260901160222 | 64 | 317 | 5.0 | 10.0 | 0.00 | 0.00 | 0.00 | 69 | 1019.9 |
| 20260901155003 | 64 | 315 | 5.0 | 12.0 | 0.00 | 0.00 | 0.00 | 68 | 1019.9 |
| 20260901154008 | 64 | 319 | 4.0 | 8.0 | 0.00 | 0.00 | 0.00 | 66 | 1019.9 |
| 20260901153008 | 65 | 317 | 4.0 | 8.0 | 0.00 | 0.00 | 0.00 | 67 | 1019.6 |
| 20260901152003 | 64 | 322 | 5.0 | 9.0 | 0.00 | 0.00 | 0.00 | 69 | 1019.8 |
| 20260901151008 | 65 | 320 | 5.0 | 8.0 | 0.00 | 0.00 | 0.00 | 67 | 1019.9 |
| 20260901150008 | 63 | 313 | 4.0 | 8.0 | 0.00 | 0.00 | 0.00 | 75 | 1020.0 |
| 20260901145003 | 62 | 318 | 4.0 | 7.0 | 0.00 | 0.00 | 0.00 | 75 | 1020.0 |
| 20260901144008 | 61 | 317 | 3.0 | 6.0 | 0.00 | 0.00 | 0.00 | 79 | 1020.1 |
| 20260901143003 | 60 | 318 | 4.0 | 9.0 | 0.00 | 0.00 | 0.00 | 79 | 1020.2 |
| 20260901142003 | 61 | 310 | 4.0 | 10.0 | 0.00 | 0.00 | 0.00 | 77 | 1020.3 |
| 20260901141008 | 62 | 316 | 4.0 | 8.0 | 0.00 | 0.00 | 0.00 | 72 | 1020.0 |
| 20260901140008 | 63 | 321 | 4.0 | 9.0 | 0.00 | 0.00 | 0.00 | 68 | 1020.0 |
| 20260901135004 | 64 | 315 | 4.0 | 7.0 | 0.00 | 0.00 | 0.00 | 68 | 1020.1 |
| 20260901134217 | 65 | 317 | 4.0 | 7.0 | 0.00 | 0.00 | 0.00 | 66 | 1020.1 |
| 20260901133008 | 65 | 313 | 4.0 | 9.0 | 0.00 | 0.00 | 0.00 | 69 | 1020.0 |
| 20260901132009 | 65 | 312 | 4.0 | 7.0 | 0.00 | 0.00 | 0.00 | 67 | 1020.0 |
| 20260901131003 | 62 | 312 | 4.0 | 6.0 | 0.00 | 0.00 | 0.00 | 72 | 1020.1 |
| 20260901130008 | 62 | 316 | 4.0 | 7.0 | 0.00 | 0.00 | 0.00 | 70 | 1020.4 |
| 20260901125008 | 62 | 316 | 4.0 | 7.0 | 0.00 | 0.00 | 0.00 | 69 | 1020.2 |
| 20260901124217 | 63 | 310 | 4.0 | 8.0 | 0.00 | 0.00 | 0.00 | 67 | 1020.3 |
| 20260901123003 | 63 | 315 | 4.0 | 10.0 | 0.00 | 0.00 | 0.00 | 66 | 1020.4 |
| 20260901122008 | 63 | 311 | 4.0 | 9.0 | 0.00 | 0.00 | 0.00 | 65 | 1020.3 |
| 20260901121009 | 64 | 308 | 4.0 | 9.0 | 0.00 | 0.00 | 0.00 | 63 | 1020.4 |
| 20260901120004 | 65 | 312 | 4.0 | 9.0 | 0.00 | 0.00 | 0.00 | 62 | 1020.3 |
| 20260901115003 | 66 | 313 | 4.0 | 9.0 | 0.00 | 0.00 | 0.00 | 60 | 1020.3 |
| 20260901114003 | 67 | 312 | 4.0 | 8.0 | 0.00 | 0.00 | 0.00 | 60 | 1020.1 |
| 20260901113003 | 66 | 312 | 5.0 | 10.0 | 0.00 | 0.00 | 0.00 | 60 | 1020.0 |
| 20260901112222 | 67 | 313 | 4.0 | 10.0 | 0.00 | 0.00 | 0.00 | 63 | 1020.2 |
| 20260901111009 | 66 | 313 | 4.0 | 8.0 | 0.00 | 0.00 | 0.00 | 61 | 1020.2 |
| 20260901110003 | 64 | 316 | 4.0 | 10.0 | 0.00 | 0.00 | 0.00 | 62 | 1020.2 |
| 20260901105218 | 63 | 321 | 4.0 | 10.0 | 0.00 | 0.00 | 0.00 | 62 | 1020.2 |
| 20260901104011 | 62 | 317 | 4.0 | 9.0 | 0.00 | 0.00 | 0.00 | 65 | 1020.4 |
| 20260901103003 | 60 | 314 | 4.0 | 9.0 | 0.00 | 0.00 | 0.00 | 65 | 1020.2 |
| 20260901102009 | 63 | 309 | 4.0 | 8.0 | 0.00 | 0.00 | 0.00 | 67 | 1020.5 |
| 20260901101003 | 61 | 319 | 4.0 | 9.0 | 0.00 | 0.00 | 0.00 | 71 | 1020.5 |
| 20260901100003 | 60 | 325 | 4.0 | 9.0 | 0.00 | 0.00 | 0.00 | 74 | 1020.5 |
| 20260901095220 | 61 | 321 | 4.0 | 9.0 | 0.00 | 0.00 | 0.00 | 75 | 1020.3 |
| 20260901094003 | 60 | 319 | 3.0 | 8.0 | 0.00 | 0.00 | 0.00 | 83 | 1020.6 |
| 20260901093008 | 58 | 317 | 3.0 | 8.0 | 0.00 | 0.00 | 0.00 | 86 | 1020.6 |
| 20260901092008 | 56 | 325 | 4.0 | 9.0 | 0.00 | 0.00 | 0.00 | 91 | 1020.8 |
| 20260901091004 | 55 | 313 | 3.0 | 9.0 | 0.00 | 0.00 | 0.00 | 95 | 1020.6 |
| 20260901090009 | 53 | 291 | 3.0 | 9.0 | 0.00 | 0.00 | 0.00 | 99 | 1020.7 |
| 20260901085005 | 53 | 262 | 2.0 | 7.0 | 0.00 | 0.00 | 0.00 | 99 | 1020.5 |
| 20260901084003 | 53 | 289 | 2.0 | 6.0 | 0.00 | 0.00 | 0.00 | 99 | 1020.7 |
| 20260901083008 | 53 | 277 | 2.0 | 7.0 | 0.00 | 0.00 | 0.00 | 99 | 1020.4 |
| 20260901082221 | 53 | 241 | 2.0 | 6.0 | 0.00 | 0.00 | 0.00 | 99 | 1020.5 |
| 20260901081217 | 52 | 289 | 3.0 | 7.0 | 0.00 | 0.00 | 0.00 | 99 | 1020.5 |
| 20260901080003 | 52 | 333 | 2.0 | 5.0 | 0.00 | 0.00 | 0.00 | 99 | 1020.5 |
| 20260901075004 | 52 | 335 | 3.0 | 9.0 | 0.00 | 0.00 | 0.00 | 99 | 1020.3 |
| 20260901074008 | 51 | 320 | 4.0 | 9.0 | 0.00 | 0.00 | 0.00 | 99 | 1020.6 |
| 20260901072223 | 51 | 319 | 4.0 | 8.0 | 0.00 | 0.00 | 0.00 | 99 | 1020.3 |
| 20260901071008 | 50 | 329 | 3.0 | 9.0 | 0.00 | 0.00 | 0.00 | 99 | 1020.4 |
| 20260901070004 | 50 | 280 | 3.0 | 7.0 | 0.00 | 0.00 | 0.00 | 99 | 1020.5 |
| 20260901065008 | 49 | 269 | 1.0 | 5.0 | 0.00 | 0.00 | 0.00 | 99 | 1020.3 |
| 20260901064003 | 49 | 288 | 2.0 | 5.0 | 0.00 | 0.00 | 0.00 | 99 | 1020.4 |
| 20260901063003 | 49 | 237 | 2.0 | 5.0 | 0.00 | 0.00 | 0.00 | 99 | 1020.1 |
| 20260901062222 | 49 | 245 | 2.0 | 6.0 | 0.00 | 0.00 | 0.00 | 99 | 1020.0 |
| 20260901061006 | 49 | 297 | 2.0 | 6.0 | 0.00 | 0.00 | 0.00 | 99 | 1020.1 |
| 20260901060008 | 48 | 291 | 2.0 | 7.0 | 0.00 | 0.00 | 0.00 | 99 | 1020.1 |
| 20260901055008 | 48 | 276 | 2.0 | 7.0 | 0.00 | 0.00 | 0.00 | 99 | 1019.8 |
| 20260901054004 | 48 | 261 | 2.0 | 5.0 | 0.00 | 0.00 | 0.00 | 99 | 1019.8 |
| 20260901053003 | 48 | 319 | 3.0 | 7.0 | 0.00 | 0.00 | 0.00 | 99 | 1020.0 |
| 20260901052004 | 48 | 338 | 4.0 | 8.0 | 0.00 | 0.00 | 0.00 | 99 | 1019.7 |
| 20260901051004 | 48 | 334 | 4.0 | 12.0 | 0.00 | 0.00 | 0.00 | 99 | 1019.7 |
| 20260901050003 | 48 | 331 | 2.0 | 7.0 | 0.00 | 0.00 | 0.00 | 99 | 1019.6 |
| 20260901045003 | 48 | 304 | 3.0 | 7.0 | 0.00 | 0.00 | 0.00 | 99 | 1019.8 |
| 20260901044003 | 48 | 326 | 3.0 | 6.0 | 0.00 | 0.00 | 0.00 | 99 | 1019.7 |
| 20260901043003 | 48 | 319 | 2.0 | 6.0 | 0.00 | 0.00 | 0.00 | 99 | 1019.6 |
| 20260901042009 | 49 | 343 | 6.0 | 13.0 | 0.00 | 0.00 | 0.00 | 99 | 1019.5 |
| 20260901041008 | 49 | 336 | 4.0 | 8.0 | 0.00 | 0.00 | 0.00 | 99 | 1019.7 |
| 20260901040003 | 49 | 297 | 4.0 | 10.0 | 0.00 | 0.00 | 0.00 | 99 | 1019.6 |
| 20260901035009 | 49 | 318 | 4.0 | 9.0 | 0.00 | 0.00 | 0.00 | 99 | 1019.6 |
| 20260901034004 | 49 | 292 | 2.0 | 6.0 | 0.00 | 0.00 | 0.00 | 99 | 1019.8 |
| 20260901033003 | 48 | 308 | 1.0 | 4.0 | 0.00 | 0.00 | 0.00 | 99 | 1019.7 |
| 20260901032003 | 49 | 323 | 3.0 | 5.0 | 0.00 | 0.00 | 0.00 | 99 | 1019.7 |
| 20260901031003 | 48 | 323 | 3.0 | 5.0 | 0.00 | 0.00 | 0.00 | 99 | 1019.6 |
| 20260901030003 | 48 | 329 | 3.0 | 5.0 | 0.00 | 0.00 | 0.00 | 99 | 1019.6 |
| 20260901025217 | 48 | 333 | 3.0 | 4.0 | 0.00 | 0.00 | 0.00 | 99 | 1019.7 |
| 20260901024004 | 48 | 333 | 3.0 | 6.0 | 0.00 | 0.00 | 0.00 | 99 | 1019.6 |
| 20260901023217 | 48 | 334 | 3.0 | 5.0 | 0.00 | 0.00 | 0.00 | 99 | 1019.7 |
| 20260901022004 | 48 | 335 | 3.0 | 4.0 | 0.00 | 0.00 | 0.00 | 98 | 1019.8 |
| 20260901021003 | 48 | 334 | 3.0 | 5.0 | 0.00 | 0.00 | 0.00 | 98 | 1019.7 |
| 20260901020003 | 48 | 324 | 3.0 | 4.0 | 0.00 | 0.00 | 0.00 | 98 | 1019.7 |
| 20260901015004 | 48 | 322 | 3.0 | 5.0 | 0.00 | 0.00 | 0.00 | 98 | 1019.8 |
| 20260901014003 | 48 | 326 | 3.0 | 4.0 | 0.00 | 0.00 | 0.00 | 98 | 1019.8 |
| 20260901013008 | 48 | 325 | 3.0 | 5.0 | 0.00 | 0.00 | 0.00 | 98 | 1019.8 |
| 20260901012003 | 49 | 337 | 4.0 | 5.0 | 0.00 | 0.00 | 0.00 | 98 | 1019.7 |
| 20260901011004 | 49 | 334 | 4.0 | 6.0 | 0.00 | 0.00 | 0.00 | 98 | 1019.9 |
| 20260901010005 | 49 | 334 | 3.0 | 6.0 | 0.00 | 0.00 | 0.00 | 98 | 1019.6 |
| 20260901005008 | 49 | 325 | 3.0 | 6.0 | 0.00 | 0.00 | 0.00 | 98 | 1019.6 |
| 20260901004007 | 49 | 327 | 3.0 | 5.0 | 0.00 | 0.00 | 0.00 | 98 | 1019.6 |
| 20260901003004 | 49 | 324 | 3.0 | 5.0 | 0.00 | 0.00 | 0.00 | 97 | 1019.5 |
| 20260901002003 | 49 | 323 | 3.0 | 4.0 | 0.00 | 0.00 | 0.00 | 97 | 1019.6 |
| 20260901001222 | 49 | 325 | 3.0 | 4.0 | 0.00 | 0.01 | 0.00 | 97 | 1019.6 |
| 20260901000009 | 49 | 327 | 2.0 | 4.0 | 0.00 | 0.01 | 0.00 | 97 | 1019.4 |
| 20260831235009 | 49 | 325 | 2.0 | 4.0 | 0.00 | 0.02 | 0.00 | 97 | 1019.5 |
| 20260831234008 | 49 | 329 | 2.0 | 4.0 | 0.00 | 0.04 | 0.00 | 96 | 1019.5 |
| 20260831233222 | 49 | 329 | 2.0 | 4.0 | 0.00 | 0.06 | 0.00 | 96 | 1019.4 |
| 20260831232008 | 50 | 328 | 3.0 | 4.0 | 0.00 | 0.06 | 0.00 | 95 | 1019.5 |
| 20260831231003 | 50 | 326 | 3.0 | 5.0 | 0.00 | 0.06 | 0.00 | 95 | 1019.5 |
| 20260831230003 | 50 | 322 | 3.0 | 5.0 | 0.00 | 0.08 | 0.00 | 94 | 1019.4 |
| 20260831225224 | 50 | 326 | 3.0 | 4.0 | 0.00 | 0.11 | 0.08 | 94 | 1019.4 |
| 20260831224008 | 51 | 323 | 3.0 | 5.0 | 0.00 | 0.15 | 0.08 | 94 | 1019.5 |
| 20260831223217 | 51 | 318 | 3.0 | 5.0 | 0.00 | 0.17 | 0.08 | 94 | 1019.4 |
| 20260831222003 | 51 | 325 | 3.0 | 4.0 | 0.00 | 0.19 | 0.08 | 93 | 1019.2 |
| 20260831221217 | 51 | 323 | 2.0 | 4.0 | 0.00 | 0.19 | 0.08 | 93 | 1019.2 |
| 20260831220008 | 51 | 322 | 2.0 | 3.0 | 0.00 | 0.19 | 0.08 | 92 | 1019.3 |
| 20260831215008 | 52 | 321 | 2.0 | 4.0 | 0.00 | 0.19 | 0.08 | 92 | 1019.3 |
| 20260831214008 | 52 | 320 | 3.0 | 4.0 | 0.00 | 0.19 | 0.08 | 91 | 1019.3 |
| 20260831213008 | 52 | 322 | 2.0 | 4.0 | 0.00 | 0.19 | 0.08 | 89 | 1019.3 |
| 20260831212013 | 53 | 322 | 2.0 | 3.0 | 0.00 | 0.19 | 0.08 | 89 | 1019.2 |
| 20260831211008 | 53 | 324 | 3.0 | 5.0 | 0.00 | 0.19 | 0.08 | 88 | 1019.1 |
| 20260831210004 | 54 | 323 | 3.0 | 5.0 | 0.00 | 0.19 | 0.08 | 87 | 1019.0 |
| 20260831205223 | 54 | 319 | 3.0 | 7.0 | 0.00 | 0.19 | 0.08 | 87 | 1019.1 |
| 20260831204003 | 54 | 316 | 3.0 | 7.0 | 0.00 | 0.19 | 0.08 | 87 | 1019.1 |